Delaware County Johnson Field Muncie US
ICAO: KMIE
IATA: MIE
Category: Medium
Scheduled Services: No

Elevation: 937 ft
TransAlt. 18000 ft.

Airport Communications:
ASOS:114.4
ATIS:133.25
INDIANAPOLIS CNTR:120.65
CTAF:120.1
MUNCIE GND:121.9
TERRE HAUTE RDO:114.4
MUNCIE TWR:120.1
UNICOM:122.95

KMIE Zoom In..

If you have problems with the map follow the link
https://www.worldairports.se/pages/airport.php?
ICAO=KMIE

Runways:

(A) RW 02 length 5198 ft width 100 ft
---- / hdg 25

(B) RW 14 length 6500 ft width 150 ft
---- / hdg 139

(C) RW 20 length 5198 ft width 100 ft
---- / hdg 205

(D) RW 32 length 6500 ft width 150 ft
ILS 109.10 / hdg 319

Location; KMIE
Day. 08 / Time. 04.53 Zulu
* Altimeter: 30.25
* Temperature: 02° c. 35.6°f.
* Wind from: 170° Speed 06 kn.
Dewpoint: -04° c.
Visibility: 10 Statute Miles.
Clouds: Clear (automated report).

KMIE 080453Z AUTO 17006KT 10SM CLR 02/M04 A3025 RMK AO2 SLP246 T00171044 400671056


Wind From 170°
Speed 06 kn.

 
 
jpsmedia worldairports.se 2019   terms of use